Weather History for Big Sandy Reg AP, Prestonsbur, KY

Change the Weather History Date:

Monday, April 21, 2014

  Actual Average Record
Temperature  
Mean Temperature 66 °F -  
Max Temperature 80 °F - - ()
Min Temperature 52 °F - - ()
Growing Degree Days 16 (Base 50)    
Moisture  
Dew Point 37 °F    
Average Humidity 33    
Maximum Humidity 46    
Minimum Humidity 24    
Precipitation  
Precipitation 0.00 in - - ()
Sea Level Pressure  
Sea Level Pressure 30.03 in    
Wind  
Wind Speed 4 mph (SW)    
Max Wind Speed 9 mph    
Max Gust Speed 18 mph    
Visibility 10 miles    
Events      
T = Trace of Precipitation, MM = Missing Value Source: NWS Daily Summary

Daily Weather History Graph

Daily Weather History Graph

Search for Another Location

Airport:

Trip Planner

Search our weather history database for the weather conditions in past years. The results will help you decide how hot, cold, wet, or windy it might be!

Date:

Astronomy

Apr. 21, 2014 Rise Set
Actual Time 6:47 AM EDT 8:11 PM EDT
Civil Twilight 6:19 AM EDT 8:39 PM EDT
Nautical Twilight 5:46 AM EDT 9:12 PM EDT
Astronomical Twilight 5:12 AM EDT 9:47 PM EDT
Moon 1:39 AM EDT (4/21) 12:14 PM EDT (4/21)
Length of Visible Light 14h 19m
Length of Day
13h 24m
Waning Gibbous, 58% of the Moon is Illuminated
Apr 21
Waning Gibbous
Apr 22
Last Quarter
Apr 29
New
May 6
First Quarter
May 14
Full

Hourly Weather History & Observations

Time (EDT) Temp. Dew Point Humidity Pressure Visibility Wind Dir Wind Speed Gust Speed Precip Events Conditions
12:15 AM 61.5 °F 29.5 °F 30% 30.13 in 10.0 mi SE 4.6 mph - N/A   Clear
12:35 AM 61.9 °F 30.4 °F 31% 30.13 in 10.0 mi SSE 5.8 mph - N/A   Clear
12:55 AM 62.1 °F 30.6 °F 31% 30.13 in 10.0 mi SSE 4.6 mph - N/A   Clear
1:15 AM 61.3 °F 31.3 °F 32% 30.13 in 10.0 mi SSE 4.6 mph - N/A   Clear
1:35 AM 57.6 °F 30.7 °F 36% 30.13 in 10.0 mi SE 3.5 mph - N/A   Clear
1:55 AM 60.1 °F 31.8 °F 34% 30.12 in 10.0 mi SSE 5.8 mph - N/A   Clear
2:15 AM 61.7 °F 30.9 °F 31% 30.11 in 10.0 mi SSE 5.8 mph - N/A   Clear
2:35 AM 58.3 °F 31.6 °F 36% 30.11 in 10.0 mi SSE 3.5 mph - N/A   Clear
2:55 AM 58.1 °F 31.6 °F 37% 30.10 in 10.0 mi SE 3.5 mph - N/A   Clear
3:15 AM 60.1 °F 30.7 °F 33% 30.10 in 10.0 mi SSE 4.6 mph - N/A   Clear
3:35 AM 59.9 °F 30.7 °F 33% 30.10 in 10.0 mi SSE 5.8 mph - N/A   Clear
3:55 AM 60.1 °F 30.2 °F 32% 30.10 in 10.0 mi SSE 4.6 mph - N/A   Clear
4:15 AM 59.4 °F 30.2 °F 33% 30.10 in 10.0 mi SSE 5.8 mph - N/A   Clear
4:35 AM 59.0 °F 30.6 °F 34% 30.10 in 10.0 mi SSE 4.6 mph - N/A   Clear
4:55 AM 57.6 °F 31.3 °F 37% 30.10 in 10.0 mi South 3.5 mph - N/A   Clear
5:15 AM 57.9 °F 30.6 °F 35% 30.10 in 10.0 mi Calm Calm - N/A   Clear
5:35 AM 57.2 °F 30.6 °F 36% 30.10 in 10.0 mi SSW 3.5 mph - N/A   Clear
5:55 AM 56.7 °F 30.9 °F 38% 30.10 in 10.0 mi Calm Calm - N/A   Clear
6:15 AM 55.4 °F 31.6 °F 40% 30.10 in 10.0 mi Calm Calm - N/A   Clear
6:35 AM 52.5 °F 32.2 °F 46% 30.10 in 10.0 mi Calm Calm - N/A   Clear
6:55 AM 55.4 °F 32.0 °F 41% 30.11 in 10.0 mi Calm Calm - N/A   Clear
7:15 AM 55.8 °F 32.0 °F 41% 30.11 in 10.0 mi Calm Calm - N/A   Clear
7:35 AM 55.9 °F 32.9 °F 42% 30.11 in 10.0 mi Calm Calm - N/A   Clear
7:55 AM 57.2 °F 33.8 °F 41% 30.12 in 10.0 mi Calm Calm - N/A   Clear
8:15 AM 58.5 °F 33.6 °F 39% 30.12 in 10.0 mi SSW 3.5 mph - N/A   Clear
8:35 AM 57.7 °F 33.6 °F 40% 30.12 in 10.0 mi SSW 4.6 mph - N/A   Clear
9:00 AM 60.3 °F 34.0 °F 37% 30.12 in 10.0 mi South 4.6 mph - N/A   Clear
9:15 AM 61.5 °F 35.2 °F 37% 30.12 in 10.0 mi SW 3.5 mph - N/A   Clear
9:35 AM 63.7 °F 36.1 °F 36% 30.11 in 10.0 mi SSW 4.6 mph - N/A   Clear
9:55 AM 65.3 °F 35.8 °F 34% 30.11 in 10.0 mi SW 3.5 mph - N/A   Clear
10:15 AM 66.6 °F 36.7 °F 33% 30.11 in 10.0 mi SW 5.8 mph - N/A   Clear
10:35 AM 68.7 °F 37.6 °F 32% 30.11 in 10.0 mi SW 4.6 mph - N/A   Clear
10:55 AM 70.7 °F 39.4 °F 32% 30.10 in 10.0 mi WSW 3.5 mph - N/A   Clear
11:35 AM 73.2 °F 40.3 °F 30% 30.09 in 10.0 mi West 4.6 mph - N/A   Clear
11:55 AM 74.3 °F 40.3 °F 29% 30.08 in 10.0 mi SW 3.5 mph - N/A   Clear
12:15 PM 76.6 °F 42.4 °F 29% 30.08 in 10.0 mi West 5.8 mph - N/A   Clear
12:35 PM 76.8 °F 41.9 °F 29% 30.06 in 10.0 mi SW 8.1 mph - N/A   Clear
12:55 PM 77.2 °F 41.4 °F 28% 30.05 in 10.0 mi SW 9.2 mph 18.4 mph N/A   Clear
1:15 PM 76.8 °F 40.3 °F 27% 30.04 in 10.0 mi West 5.8 mph - N/A   Clear
1:35 PM 77.7 °F 40.5 °F 26% 30.03 in 10.0 mi WSW 6.9 mph - N/A   Clear
1:55 PM 78.4 °F 40.6 °F 26% 30.02 in 10.0 mi SW 5.8 mph - N/A   Clear
2:15 PM 78.6 °F 40.1 °F 25% 30.01 in 10.0 mi NW 6.9 mph - N/A   Clear
2:35 PM 78.4 °F 38.5 °F 24% 30.00 in 10.0 mi West 3.5 mph - N/A   Clear
2:55 PM 78.4 °F 39.0 °F 24% 30.00 in 10.0 mi SW 4.6 mph - N/A   Clear
3:15 PM 77.9 °F 39.0 °F 25% 29.99 in 10.0 mi Calm Calm - N/A   Clear
3:35 PM 79.2 °F 39.7 °F 24% 29.98 in 10.0 mi WSW 9.2 mph - N/A   Clear
3:55 PM 78.6 °F 39.9 °F 25% 29.97 in 10.0 mi WSW 6.9 mph - N/A   Clear
4:15 PM 77.7 °F 39.9 °F 26% 29.96 in 10.0 mi SSW 5.8 mph - N/A   Clear
4:35 PM 79.3 °F 40.6 °F 25% 29.95 in 10.0 mi SW 5.8 mph - N/A   Clear
4:55 PM 79.7 °F 40.3 °F 24% 29.94 in 10.0 mi SW 4.6 mph - N/A   Clear
5:15 PM 77.9 °F 40.1 °F 26% 29.94 in 10.0 mi WSW 5.8 mph - N/A   Clear
5:35 PM 77.2 °F 40.3 °F 27% 29.94 in 10.0 mi West 5.8 mph - N/A   Clear
5:55 PM 76.8 °F 40.5 °F 27% 29.94 in 10.0 mi West 4.6 mph - N/A   Clear
6:15 PM 77.0 °F 41.9 °F 28% 29.94 in 10.0 mi WSW 5.8 mph - N/A   Clear
6:35 PM 76.5 °F 41.5 °F 29% 29.94 in 10.0 mi SW 6.9 mph - N/A   Clear
6:55 PM 76.1 °F 41.5 °F 29% 29.93 in 10.0 mi WSW 4.6 mph - N/A   Clear
7:15 PM 75.7 °F 41.4 °F 29% 29.93 in 10.0 mi WSW 3.5 mph - N/A   Clear
7:35 PM 74.8 °F 41.7 °F 30% 29.92 in 10.0 mi Calm Calm - N/A   Clear
7:55 PM 74.5 °F 41.5 °F 31% 29.92 in 10.0 mi NNW 3.5 mph - N/A   Clear
8:15 PM 73.8 °F 43.0 °F 33% 29.92 in 10.0 mi NW 6.9 mph - N/A   Clear
8:35 PM 73.2 °F 43.3 °F 34% 29.93 in 10.0 mi NW 6.9 mph - N/A   Clear
8:55 PM 72.5 °F 43.9 °F 36% 29.92 in 10.0 mi NW 4.6 mph - N/A   Clear
9:15 PM 71.6 °F 44.4 °F 38% 29.92 in 10.0 mi Calm Calm - N/A   Clear
9:35 PM 71.4 °F 44.6 °F 38% 29.92 in 10.0 mi WNW 3.5 mph - N/A   Clear
9:55 PM 70.2 °F 45.0 °F 40% 29.92 in 10.0 mi WNW 3.5 mph - N/A   Clear
10:15 PM 70.0 °F 44.8 °F 40% 29.92 in 10.0 mi Calm Calm - N/A   Clear
10:35 PM 69.4 °F 45.1 °F 42% 29.92 in 10.0 mi WNW 3.5 mph - N/A   Clear
10:55 PM 68.9 °F 45.1 °F 42% 29.92 in 10.0 mi Calm Calm - N/A   Clear
11:15 PM 68.0 °F 45.3 °F 44% 29.91 in 10.0 mi Calm Calm - N/A   Clear
11:35 PM 68.9 °F 45.1 °F 42% 29.91 in 10.0 mi WSW 3.5 mph - N/A   Clear
11:55 PM 68.0 °F 45.3 °F 44% 29.90 in 10.0 mi Calm Calm - N/A   Clear